Regional Weather Roundup
Issued by NWS

Home | Current Version | Previous Version | Text Only | Print | Product List | Glossary Off
Versions: 1 2 3 4 5 6 7 8 9 10 11 12 13 14 15 16 17 18 19 20 21 22 23 24 25 26 27 28 29 30 31 32 33 34 35 36 37 38 39 40 41 42 43 44 45 46 47 48 49 50

926
ASUS43 KDMX 111708
RWRIA

WEATHER ROUNDUP FOR IOWA
NATIONAL WEATHER SERVICE DES MOINES IA
1100 AM CST THU FEB 11 2016

NOTE: "FAIR" INDICATES FEW OR NO CLOUDS BELOW 12,000 FEET WITH NO
SIGNIFICANT WEATHER AND/OR OBSTRUCTIONS TO VISIBILITY.

* - THESE STATIONS ARE NOT NWS STATIONS...THUS NOT UNDER NWS
QUALITY CONTROL.  THEY ALSO DO NOT REPORT WEATHER SUCH
AS PRECIPITATION OR FOG.

IAZ001>003-012>014-020>022-031>034-043>046-111800-
   NORTHWEST IOWA

CITY           SKY/WX    TMP DP  RH WIND       PRES   REMARKS
CARROLL *      CLOUDY    10   3  72 SE6       30.32R WCI   1
CHEROKEE *     CLOUDY    14   7  73 S9        30.30F WCI   2
DENISON *      CLOUDY    14   5  67 SE6       30.30R WCI   5
LE MARS *      CLOUDY    18   9  68 S12       30.30S WCI   5
ORANGE CITY *  CLOUDY    16   9  73 S7        30.26F WCI   6
SHELDON *      CLOUDY    14   7  73 S12       30.26F WCI   0
SIOUX CITY     CLOUDY    19  11  70 S12       30.30S WCI   7
SPENCER        CLOUDY    13   4  67 S10       30.29R WCI   0
STORM LAKE *   CLOUDY    12   5  73 S10       30.28S WCI  -1
$$

IAZ055>058-069>071-079>083-090>094-111800-
   SOUTHWEST IOWA

CITY           SKY/WX    TMP DP  RH WIND       PRES   REMARKS
ATLANTIC *     CLOUDY    16   3  57 SE5       30.32F WCI   9
AUDUBON *      CLOUDY    14   3  62 SE5       30.30F WCI   6
CLARINDA *     PTSUNNY   23  10  58 VRB5      30.34S WCI  17
COUNCIL BLFS * CLOUDY    16   7  67 SE9       30.30F WCI   4
CRESTON *      CLOUDY    18   3  53 E9        30.32S WCI   6
HARLAN  *      CLOUDY    16   5  62 SE5       30.34S WCI   9
LAMONI         CLOUDY    19   0  43 E6        30.32S WCI  11
RED OAK *      CLOUDY    19   7  58 E6        30.31F WCI  11
SHENANDOAH *   PTSUNNY   23  12  63 SE7       30.32F WCI  15
$$

IAZ047>049-059>061-072>074-084-111800-
   CENTRAL IOWA

CITY           SKY/WX    TMP DP  RH WIND       PRES   REMARKS
AMES           CLOUDY    10   1  67 S5        30.35R WCI   2
ANKENY *       SUNNY     12   0  57 CALM      30.36R
BOONE *        SUNNY      9   0  66 S6        30.32S WCI  -1
CHARITON *     SUNNY     16   1  53 S3        30.35R
DES MOINES     MOSUNNY   14   0  53 S3        30.35R
GRINNELL*      SUNNY     14   5  67 SE3       30.35R
KNOXVILLE *    SUNNY     14   0  52 CALM      30.34R
MARSHALLTOWN   SUNNY     12   3  67 VRB3      30.34S
NEWTON *       SUNNY     12   1  62 S3        30.35R
PELLA *        SUNNY     18   3  53 CALM      30.37R
$$

IAZ004>006-015-016-023>025-035-036-111800-
   NORTH CENTRAL IOWA

CITY           SKY/WX    TMP DP  RH WIND       PRES   REMARKS
ALGONA *       PTSUNNY    9   1  72 S9        30.32R WCI  -5
CLARION *      SUNNY      7  -2  66 S5        30.33R WCI  -2
ESTHERVILLE    CLOUDY     8   1  73 S13       30.29R WCI  -8
FORT DODGE *   CLOUDY    12   0  57 SW8       30.34R WCI   1
MASON CITY     CLOUDY     8  -2  63 SE6       30.33R WCI  -2
FOREST CITY *  SUNNY      9   0  66 S3        30.32R
WEBSTER CITY * SUNNY     10   0  61 SE9       30.32R WCI  -2
IOWA FALLS *     N/A      9   0  66 SE3       30.34R HAZE
$$

IAZ007>011-017>019-026>030-037>042-050>054-066-111800-
   NORTHEAST IOWA

CITY           SKY/WX    TMP DP  RH WIND       PRES   REMARKS
CEDAR RAPIDS   SUNNY     16   4  59 VRB5      30.34S WCI   9
CHARLES CITY * SUNNY      9  -4  56 CALM      30.33S
CLINTON *      SUNNY     22   4  46 CALM      30.37R
DECORAH *      SUNNY      9  -4  56 CALM      30.32R
DUBUQUE        SUNNY     12  -1  56 CALM      30.33R
MONTICELLO *   SUNNY     14   0  52 CALM      30.35S
OELWEIN *      SUNNY      9   0  66 NE3       30.33F
WATERLOO       SUNNY     10   0  63 CALM      30.35S
$$

IAZ064-065-067-068-078-111800-
   EAST CENTRAL IOWA

CITY           SKY/WX    TMP DP  RH WIND       PRES   REMARKS
DAVENPORT      SUNNY     17   1  49 VRB5      30.36S WCI  10
IOWA CITY      SUNNY     17   3  54 S5        30.39R WCI  10
MT. PLEASANT * SUNNY     21   5  49 SE3       30.37F
MUSCATINE *    SUNNY     18   1  49 CALM      30.39S
QUAD CITIES    SUNNY     18   0  45 CALM      30.37S
$$

IAZ062-063-075>077-085>089-095>099-111800-
   SOUTHEAST IOWA

CITY           SKY/WX    TMP DP  RH WIND       PRES   REMARKS
BURLINGTON     SUNNY     18   4  54 CALM      30.36S
FAIRFIELD *    SUNNY     16   1  53 E7        30.35F WCI   6
FORT MADISON * SUNNY     18   7  62 CALM      30.37S
KEOKUK *       SUNNY     18   5  57 E6        30.37S WCI   9
OSKALOOSA *      N/A     16   5  62 SE5       30.35F WCI   9
CENTERVILLE *  SUNNY     16   1  53 E6        30.33F WCI   7
OTTUMWA        SUNNY     15   6  67 E6        30.34F WCI   6
WASHINGTON *   SUNNY     16   3  57 SE6       30.38F WCI   7
$$

ABBREVIATIONS USED IN REMARKS
   TC - TEMPERATURES IN CELSIUS
  WCI - WIND CHILL INDEX
   HX - HEAT INDEX
  VSB - VISIBILITY
$$





USA.gov is the U.S. government's official web portal to all federal, state and local government web resources and services.